格洛纳斯-783 COSMOS 2374 [GLONASS]

导读

COSMOS 2374是独联体(CIS)于2000年10月13日发射的GLONASS(格洛纳斯)系统导航卫星,属于俄罗斯全球卫星导航系统组网卫星之一。它运行在高度约19100公里、倾角64.8°的中圆地球轨道,运行周期11小时15分,采用频分多址技术播发导航信号,为全球用户提供高精度定位、测速与授时服务,是格洛纳斯星座建设中补充组网的重要卫星,支撑系统实现全球覆盖能力。

基本信息
目录编号:
26566
目录名称:
COSMOS 2374 (GLONASS)
国际标识:
2000-063C
轨道中心:
EARTH
卫星名称:
格洛纳斯-783
卫星全名:
格洛纳斯-783 COSMOS 2374 [GLONASS]
卫星状态:
在轨 (已飞行9418 天)
发射日期:
2000-10-13 UTC
国别 :
俄罗斯(独联体) (CIS)
星等 :
--
轨道信息
数据来源 国际轨道数据 AOE轨道数据
星历时间 2026-07-27T16:37:42+0800
13小时前
查看轨道信息
2026-07-22T10:00:00+0800
5天前
查看轨道信息
半长轴 25508.2km 25508.24km
偏心率 0.0079649 0.0079419
轨道倾角 65.150° 65.153°
近地点辐角 208.772° 208.738°
升交点赤经 312.199° 312.379°
平近点角 159.518° 71.904°
近地点 18926.892km 18927.519km
远地点 19333.234km 19332.687km
周期 675.740分钟 675.741分钟
每日圈数 2.130998 2.130993
详细信息
平衡模式:
三轴稳定
覆盖范围:
全球
运营商:
列舍特涅夫卫星信息系统
运营商所在国:
俄罗斯
制造商(研发单位):
列舍特涅夫卫星信息系统
制造商所在国:
俄罗斯
使用方式:
暂无
卫星简介
格洛纳斯(GLONASS )是苏联/俄罗斯研制卫星导航系统。标准配置为24颗卫星,其中18颗卫星就能保证该系统为俄罗斯境内用户提供全部服务。该卫星已退役。
2D轨道图
3D轨道图
轨道高度分析图
轨道倾角分析图
轨道综合分析图
查看轨道综合分析图